ACA873 CYUL-KRDU

Flight info

Callsign ACA873
Flight time N/A
Altitude 40000
Route CYUL5/24L FAWNS BUGSY SYR AML GVE MELTM ALDAN4
Aircraft A339/H-SADE1E2E3GHIJ3J5M1P2RWXY/LB2D1

Departure

Time 2026-05-07 01:00
Airport Montreal / Pierre Elliott Trudeau International Airport (CYUL)

Arrival

Time N/A
Airport Raleigh-Durham International Airport (KRDU)
Time Latitude Longitude Altitude Speed Heading
2026-05-07 00:45 45.45677 -73.75628 114 ft 0 kts 12°
2026-05-07 00:48 45.45684 -73.75626 114 ft 2 kts 12°
2026-05-07 00:48 45.45706 -73.75620 114 ft 4 kts 12°
2026-05-07 00:48 45.45726 -73.75626 115 ft 3 kts 310°
2026-05-07 00:49 45.45738 -73.75674 114 ft 6 kts 284°
2026-05-07 00:49 45.45753 -73.75745 114 ft 8 kts 292°
2026-05-07 00:49 45.45787 -73.75822 115 ft 10 kts 308°
2026-05-07 00:49 45.45841 -73.75891 115 ft 11 kts 331°
2026-05-07 00:50 45.45917 -73.75926 116 ft 11 kts 349°
2026-05-07 00:50 45.46001 -73.75940 116 ft 12 kts 359°
2026-05-07 00:50 45.46089 -73.75938 117 ft 8 kts 17°
2026-05-07 00:50 45.46108 -73.75887 117 ft 5 kts 72°
2026-05-07 00:51 45.46120 -73.75822 117 ft 7 kts 77°
2026-05-07 00:51 45.46129 -73.75739 117 ft 9 kts 88°
2026-05-07 00:51 45.46131 -73.75635 117 ft 12 kts 89°
2026-05-07 00:51 45.46133 -73.75507 118 ft 13 kts 88°
2026-05-07 00:52 45.46137 -73.75367 118 ft 14 kts 87°
2026-05-07 00:52 45.46141 -73.75238 118 ft 12 kts 86°
2026-05-07 00:52 45.46146 -73.75111 118 ft 13 kts 87°
2026-05-07 00:52 45.46150 -73.74975 118 ft 14 kts 87°
2026-05-07 00:53 45.46154 -73.74830 119 ft 15 kts 88°
2026-05-07 00:53 45.46159 -73.74668 119 ft 18 kts 89°
2026-05-07 00:53 45.46127 -73.74486 119 ft 20 kts 97°
2026-05-07 00:53 45.46133 -73.74266 118 ft 22 kts 76°
2026-05-07 00:54 45.46144 -73.74085 118 ft 17 kts 79°
2026-05-07 00:54 45.46210 -73.73955 118 ft 16 kts 45°
2026-05-07 00:54 45.46317 -73.73811 119 ft 26 kts 42°
2026-05-07 00:54 45.46474 -73.73608 119 ft 32 kts 42°
2026-05-07 00:55 45.46715 -73.73294 121 ft 31 kts 42°
2026-05-07 00:55 45.46872 -73.73086 123 ft 29 kts 43°
2026-05-07 00:55 45.47016 -73.72897 125 ft 27 kts 42°
2026-05-07 00:55 45.47153 -73.72718 127 ft 25 kts 42°
2026-05-07 00:56 45.47276 -73.72553 130 ft 23 kts 43°
2026-05-07 00:56 45.47393 -73.72397 133 ft 22 kts 43°
2026-05-07 00:56 45.47502 -73.72253 135 ft 20 kts 42°
2026-05-07 00:56 45.47606 -73.72119 137 ft 19 kts 42°
2026-05-07 00:57 45.47704 -73.71993 139 ft 18 kts 41°
2026-05-07 00:57 45.47796 -73.71869 140 ft 18 kts 44°
2026-05-07 00:57 45.47821 -73.71765 142 ft 10 kts 113°
2026-05-07 00:57 45.47800 -73.71722 142 ft 0 kts 137°
2026-05-07 00:58 45.47798 -73.71720 142 ft 1 kts 139°
2026-05-07 00:58 45.47765 -73.71689 143 ft 11 kts 149°
2026-05-07 00:58 45.47669 -73.71654 143 ft 16 kts 204°
2026-05-07 00:59 45.47451 -73.71926 139 ft 56 kts 223°
2026-05-07 00:59 45.46993 -73.72532 128 ft 122 kts 222°
2026-05-07 00:59 45.46243 -73.73516 241 ft 162 kts 223°
2026-05-07 01:00 45.45462 -73.74593 1047 ft 151 kts 226°
2026-05-07 01:00 45.44751 -73.75611 1748 ft 144 kts 225°
2026-05-07 01:00 45.44018 -73.76572 2235 ft 152 kts 223°
2026-05-07 01:00 45.43167 -73.77565 2616 ft 167 kts 220°
2026-05-07 01:01 45.42233 -73.78655 2984 ft 182 kts 223°
2026-05-07 01:01 45.41213 -73.79852 3289 ft 197 kts 217°
2026-05-07 01:01 45.39973 -73.80830 3546 ft 212 kts 208°
2026-05-07 01:01 45.38578 -73.81761 3817 ft 227 kts 207°
2026-05-07 01:02 45.37117 -73.82732 4082 ft 240 kts 208°
2026-05-07 01:02 45.35575 -73.83773 4234 ft 251 kts 207°
2026-05-07 01:02 45.33886 -73.84358 4051 ft 249 kts 180°
2026-05-07 01:02 45.32288 -73.83677 3985 ft 234 kts 147°
2026-05-07 01:03 45.31067 -73.82282 3999 ft 215 kts 139°
2026-05-07 01:03 45.30027 -73.80883 3984 ft 199 kts 137°
2026-05-07 01:03 45.29044 -73.79519 3994 ft 198 kts 136°
2026-05-07 01:03 45.28065 -73.78153 3996 ft 198 kts 136°
2026-05-07 01:04 45.27107 -73.76811 3986 ft 186 kts 132°
2026-05-07 01:04 45.26565 -73.75221 3982 ft 188 kts 89°
2026-05-07 01:04 45.26872 -73.73424 4019 ft 193 kts 57°
2026-05-07 01:04 45.27641 -73.71849 4109 ft 194 kts 48°
2026-05-07 01:05 45.28507 -73.70339 4113 ft 203 kts 47°
2026-05-07 01:05 45.29470 -73.68727 4129 ft 228 kts 46°
2026-05-07 01:05 45.30530 -73.66980 4106 ft 234 kts 46°
2026-05-07 01:05 45.31591 -73.65235 4099 ft 235 kts 46°
2026-05-07 01:06 45.32665 -73.63469 4095 ft 234 kts 46°
2026-05-07 01:06 45.33725 -73.61732 4093 ft 235 kts 46°
2026-05-07 01:06 45.34781 -73.60004 4077 ft 220 kts 46°
2026-05-07 01:06 45.35741 -73.58420 4080 ft 209 kts 46°
2026-05-07 01:07 45.36692 -73.56854 4102 ft 209 kts 46°
2026-05-07 01:07 45.37635 -73.55305 4095 ft 209 kts 46°
2026-05-07 01:07 45.38585 -73.53735 4098 ft 209 kts 46°
2026-05-07 01:07 45.39531 -73.52165 4102 ft 209 kts 46°
2026-05-07 01:08 45.40513 -73.50639 4100 ft 207 kts 40°
2026-05-07 01:08 45.41600 -73.49277 4104 ft 207 kts 37°
2026-05-07 01:08 45.42692 -73.47979 4101 ft 207 kts 36°
2026-05-07 01:08 45.43803 -73.46671 4101 ft 207 kts 36°
2026-05-07 01:09 45.44859 -73.45238 4089 ft 210 kts 56°
2026-05-07 01:09 45.45267 -73.43237 4103 ft 226 kts 91°
2026-05-07 01:09 45.44784 -73.40984 4130 ft 256 kts 123°
2026-05-07 01:09 45.43419 -73.39169 4292 ft 282 kts 153°
2026-05-07 01:10 45.41597 -73.38204 5236 ft 281 kts 164°
2026-05-07 01:10 45.39746 -73.37447 6255 ft 279 kts 166°
2026-05-07 01:10 45.37884 -73.36724 7081 ft 283 kts 166°
2026-05-07 01:10 45.35976 -73.36003 7946 ft 284 kts 171°
2026-05-07 01:11 45.34049 -73.36008 8788 ft 278 kts 198°
2026-05-07 01:11 45.32381 -73.37231 9698 ft 270 kts 224°
2026-05-07 01:11 45.31332 -73.39358 10533 ft 267 kts 249°
2026-05-07 01:11 45.30993 -73.41997 10991 ft 283 kts 263°
2026-05-07 01:12 45.30663 -73.44837 11401 ft 299 kts 254°
2026-05-07 01:12 45.29976 -73.47604 12279 ft 299 kts 246°
2026-05-07 01:12 45.29100 -73.50215 13248 ft 297 kts 242°
2026-05-07 01:12 45.28092 -73.52749 14043 ft 299 kts 239°
2026-05-07 01:13 45.26977 -73.55273 14824 ft 303 kts 237°
2026-05-07 01:13 45.25816 -73.57738 15598 ft 305 kts 236°
2026-05-07 01:13 45.24604 -73.60215 16402 ft 306 kts 235°
2026-05-07 01:13 45.23375 -73.62669 17154 ft 308 kts 234°
2026-05-07 01:14 45.22117 -73.65143 17914 ft 310 kts 234°
2026-05-07 01:14 45.20832 -73.67642 18431 ft 320 kts 233°
2026-05-07 01:14 45.19510 -73.70195 19002 ft 327 kts 233°
2026-05-07 01:14 45.18169 -73.72771 19684 ft 330 kts 233°
2026-05-07 01:15 45.16794 -73.75410 20367 ft 333 kts 233°
2026-05-07 01:15 45.15419 -73.78043 20987 ft 337 kts 233°
2026-05-07 01:15 45.14012 -73.80732 21604 ft 341 kts 233°
2026-05-07 01:15 45.12605 -73.83421 22219 ft 343 kts 233°
2026-05-07 01:16 45.11183 -73.86130 22667 ft 346 kts 234°
2026-05-07 01:16 45.09746 -73.88866 22835 ft 347 kts 233°
2026-05-07 01:16 45.08306 -73.91612 22897 ft 351 kts 234°
2026-05-07 01:16 45.06848 -73.94386 23428 ft 355 kts 233°
2026-05-07 01:17 45.05379 -73.97176 24109 ft 355 kts 234°
2026-05-07 01:17 45.03896 -73.99994 24686 ft 358 kts 233°
2026-05-07 01:17 45.02399 -74.02833 25213 ft 361 kts 233°
2026-05-07 01:17 45.00863 -74.05589 25700 ft 365 kts 227°
2026-05-07 01:18 44.98885 -74.07890 26164 ft 372 kts 213°
2026-05-07 01:18 44.96497 -74.09372 26677 ft 379 kts 199°
2026-05-07 01:18 44.92564 -74.10301 27423 ft 385 kts 192°
2026-05-07 01:18 44.83313 -74.12151 29023 ft 390 kts 191°
2026-05-07 01:19 44.77359 -74.13235 29615 ft 396 kts 194°
2026-05-07 01:19 44.74728 -74.14287 29929 ft 395 kts 205°
2026-05-07 01:19 44.72234 -74.15913 30345 ft 394 kts 211°
2026-05-07 01:19 44.69923 -74.17934 30758 ft 394 kts 218°
2026-05-07 01:20 44.67782 -74.20330 31105 ft 395 kts 224°
2026-05-07 01:20 44.65795 -74.22993 31457 ft 396 kts 226°
2026-05-07 01:20 44.63830 -74.25679 31848 ft 396 kts 226°
2026-05-07 01:20 44.53639 -74.39559 33522 ft 397 kts 228°
2026-05-07 01:21 44.29554 -74.71990 39261 ft 392 kts 229°
2026-05-07 01:21 44.27637 -74.74588 39706 ft 387 kts 229°
2026-05-07 01:21 44.23566 -74.80139 39936 ft 392 kts 229°
2026-05-07 01:22 44.06230 -75.03363 39852 ft 400 kts 229°
2026-05-07 01:22 43.41839 -75.87425 39926 ft 398 kts 229°
2026-05-07 01:23 43.23230 -76.11324 39914 ft 395 kts 229°
2026-05-07 01:23 43.14126 -76.20047 39919 ft 409 kts 215°
2026-05-07 01:24 43.03122 -76.25015 39934 ft 426 kts 202°
2026-05-07 01:24 42.91547 -76.28316 39933 ft 424 kts 203°
2026-05-07 01:25 42.80069 -76.31860 39930 ft 423 kts 205°
2026-05-07 01:25 42.68643 -76.35464 39921 ft 420 kts 205°
2026-05-07 01:26 42.57298 -76.39026 39929 ft 419 kts 205°
2026-05-07 01:26 42.45956 -76.42575 39944 ft 417 kts 206°
2026-05-07 01:27 42.34706 -76.46076 39929 ft 415 kts 206°
2026-05-07 01:27 42.23506 -76.49548 39935 ft 413 kts 206°
2026-05-07 01:28 42.12262 -76.53029 39908 ft 412 kts 207°
2026-05-07 01:28 42.03813 -76.55637 39939 ft 409 kts 207°
2026-05-07 01:29 41.98264 -76.57340 39925 ft 409 kts 207°
2026-05-07 01:29 41.92711 -76.59048 39918 ft 410 kts 207°
2026-05-07 01:30 41.87162 -76.60752 39911 ft 407 kts 207°
2026-05-07 01:30 41.81653 -76.62432 39906 ft 408 kts 208°
2026-05-07 01:31 41.76108 -76.64129 39909 ft 407 kts 208°
2026-05-07 01:31 41.70598 -76.65807 39910 ft 405 kts 207°
2026-05-07 01:32 41.65110 -76.67478 39917 ft 409 kts 207°
2026-05-07 01:32 41.59576 -76.69159 39896 ft 406 kts 208°
2026-05-07 01:33 41.54053 -76.70834 39891 ft 407 kts 208°
2026-05-07 01:33 41.48542 -76.72500 39893 ft 407 kts 208°
2026-05-07 01:34 41.43029 -76.74168 39897 ft 406 kts 208°
2026-05-07 01:34 41.37526 -76.75827 39911 ft 407 kts 208°
2026-05-07 01:35 41.31987 -76.77495 39914 ft 407 kts 208°
2026-05-07 01:35 41.26506 -76.79145 39925 ft 405 kts 208°
2026-05-07 01:36 41.20980 -76.80801 39921 ft 408 kts 208°
2026-05-07 01:36 41.15442 -76.82461 39922 ft 408 kts 208°
2026-05-07 01:37 41.09904 -76.84116 39933 ft 408 kts 208°
2026-05-07 01:37 41.04385 -76.85762 39917 ft 407 kts 209°
2026-05-07 01:38 40.98888 -76.87399 39920 ft 406 kts 208°
2026-05-07 01:38 40.93361 -76.89045 39908 ft 404 kts 208°
2026-05-07 01:38 40.90638 -76.89844 39640 ft 401 kts 209°
2026-05-07 01:39 40.87922 -76.90647 39071 ft 401 kts 210°
2026-05-07 01:39 40.85217 -76.91449 38821 ft 400 kts 210°
2026-05-07 01:39 40.82545 -76.92235 38812 ft 386 kts 209°
2026-05-07 01:39 40.79961 -76.92987 38578 ft 379 kts 210°
2026-05-07 01:40 40.77333 -76.93650 37575 ft 403 kts 203°
2026-05-07 01:40 40.74395 -76.93634 36323 ft 446 kts 190°
2026-05-07 01:40 40.71238 -76.92690 35413 ft 487 kts 176°
2026-05-07 01:40 40.68082 -76.90758 35063 ft 511 kts 165°
2026-05-07 01:41 40.65140 -76.87987 34610 ft 530 kts 153°
2026-05-07 01:41 40.62537 -76.84495 33898 ft 555 kts 141°
2026-05-07 01:41 40.60289 -76.80267 33485 ft 565 kts 132°
2026-05-07 01:42 40.56293 -76.71395 33534 ft 565 kts 130°
2026-05-07 01:42 40.52423 -76.62504 33656 ft 560 kts 129°
2026-05-07 01:43 40.48594 -76.53687 33803 ft 555 kts 130°
2026-05-07 01:43 40.44805 -76.44908 33848 ft 553 kts 129°
2026-05-07 01:44 40.41011 -76.36138 33767 ft 555 kts 127°
2026-05-07 01:44 40.39470 -76.31393 33674 ft 570 kts 115°
2026-05-07 01:44 40.38565 -76.26307 33652 ft 577 kts 102°
2026-05-07 01:44 40.38326 -76.21081 33640 ft 581 kts 90°